Melbourne Airport, Victoria

3:36 AM AEDT on February 08, 2016 (GMT +1100)
Melbourne International

Weather History for YMML - August, 2014

Change the Weather History Date:

Wednesday, August 27, 2014

  Actual Average Record
Temperature  
Mean Temperature 54 °F -  
Max Temperature 66 °F 60 °F 77 °F (2007)
Min Temperature 41 °F 43 °F 35 °F (2005)
Degree Days  
Heating Degree Days 12    
Growing Degree Days 4 (Base 50)    
Moisture  
Dew Point 44 °F    
Average Humidity 78    
Maximum Humidity 100    
Minimum Humidity 34    
Precipitation  
Precipitation 0.00 in 0.06 in - ()
Sea Level Pressure  
Sea Level Pressure 30.34 in    
Wind  
Wind Speed 7 mph ()    
Max Wind Speed 14 mph    
Max Gust Speed -    
Visibility 5.4 miles    
Events Fog    
Averages and records for this station are not official NWS values.
T = Trace of Precipitation, MM = Missing Value Source: Averaged Metar Reports

Daily Weather History Graph

Daily Weather History Graph

Search for Another Location

Airport or City:

Trip Planner

Search our weather history database for the weather conditions in past years. The results will help you decide how hot, cold, wet, or windy it might be!

Date:

Astronomy

Aug. 27, 2014 Rise Set
Actual Time 6:50 AM AEST 5:55 PM AEST
Civil Twilight 6:23 AM AEST 6:21 PM AEST
Nautical Twilight 5:53 AM AEST 6:52 PM AEST
Astronomical Twilight 5:22 AM AEST 7:22 PM AEST
Moon 7:18 AM AEST (8/27) 7:30 PM AEST (8/27)
Length of Visible Light 11h 58m
Length of Day
11h 05m
New Moon, 2% of the Moon is Illuminated
Aug 27
New Moon
Sep 2
First Quarter
Sep 9
Full
Sep 16
Last Quarter
Sep 24
New

Hourly Weather History & Observations

Time (AEST) Temp. Windchill Dew Point Humidity Pressure Visibility Wind Dir Wind Speed Gust Speed Precip Events Conditions
12:00 AM 47 °F - 45 °F 91% 30.32 in 7 mi North 11.5 mph - - Fog Light Fog
12:00 AM 46.4 °F 41.1 °F 44.6 °F 93% 30.30 in 6.2 mi North 11.5 mph - N/A   Partly Cloudy
1:00 AM 47 °F - 44 °F 85% 30.32 in - North 13.8 mph - -  
1:00 AM 46.4 °F 40.4 °F 44.6 °F 93% 30.30 in 6.2 mi North 13.8 mph - N/A   Partly Cloudy
1:30 AM 46.4 °F 41.1 °F 44.6 °F 93% 30.30 in 6.2 mi North 11.5 mph - N/A   Partly Cloudy
2:00 AM 47 °F - 44 °F 84% 30.32 in - North 10.4 mph - -  
2:00 AM 46.4 °F 41.5 °F 44.6 °F 93% 30.30 in 6.2 mi North 10.4 mph - N/A   Partly Cloudy
2:30 AM 46.4 °F 41.9 °F 42.8 °F 87% 30.30 in 6.2 mi North 9.2 mph - N/A   Partly Cloudy
3:00 AM 45 °F - 43 °F 88% 30.32 in 7 mi North 10.4 mph - -   Haze
3:00 AM 44.6 °F 39.2 °F 42.8 °F 93% 30.30 in 6.2 mi North 10.4 mph - N/A   Partly Cloudy
3:30 AM 44.6 °F 39.2 °F 42.8 °F 93% 30.30 in 6.2 mi North 10.4 mph - N/A   Partly Cloudy
4:00 AM 43 °F - 41 °F 92% 30.32 in - North 12.7 mph - -  
4:00 AM 42.8 °F 36.2 °F 41.0 °F 93% 30.30 in 6.2 mi North 12.7 mph - N/A   Partly Cloudy
4:30 AM 42.8 °F - 41.0 °F 93% 30.30 in 6.2 mi North 2.3 mph - N/A   Partly Cloudy
5:00 AM 43 °F - 41 °F 89% 30.32 in - North 10.4 mph - -  
5:00 AM 42.8 °F 37.0 °F 41.0 °F 93% 30.30 in 6.2 mi North 10.4 mph - N/A   Partly Cloudy
5:30 AM 42.8 °F 39.3 °F 41.0 °F 93% 30.33 in 6.2 mi North 5.8 mph - N/A   Partly Cloudy
6:00 AM 43 °F - 41 °F 88% 30.33 in 12 mi North 6.9 mph - -   Haze
6:00 AM 42.8 °F 38.6 °F 41.0 °F 93% 30.30 in 6.2 mi North 6.9 mph - N/A   Partly Cloudy
6:30 AM 42.8 °F 39.3 °F 39.2 °F 87% 30.33 in 6.2 mi North 5.8 mph - N/A   Partly Cloudy
7:00 AM 42 °F - 40 °F 88% 30.35 in - North 5.8 mph - -  
7:00 AM 41.0 °F 37.1 °F 39.2 °F 93% 30.33 in 6.2 mi North 5.8 mph - N/A   Partly Cloudy
7:30 AM 41.0 °F 39.0 °F 39.2 °F 93% 30.33 in - NNW 3.5 mph - N/A   Clear
8:00 AM 47 °F - 43 °F 79% 30.37 in - East 1.2 mph - -  
8:00 AM 46.4 °F - 42.8 °F 87% 30.36 in - East 1.2 mph - N/A   Clear
8:30 AM 50.0 °F - 44.6 °F 82% 30.36 in - North 8.1 mph - N/A   Clear
9:00 AM 53 °F - 47 °F 75% 30.37 in 11 mi NNW 4.6 mph - -   Haze
9:00 AM 53.6 °F - 48.2 °F 82% 30.36 in - NNW 4.6 mph - N/A   Clear
9:30 AM 57.2 °F - 46.4 °F 67% 30.36 in - Calm Calm - N/A   Clear
10:00 AM 58 °F - 48 °F 62% 30.38 in - Calm Calm - -  
10:00 AM 57.2 °F - 48.2 °F 72% 30.36 in - Calm Calm - N/A   Clear
10:30 AM 59.0 °F - 50.0 °F 72% 30.36 in 6.2 mi Calm Calm - N/A   Partly Cloudy
11:00 AM 60 °F - 49 °F 57% 30.38 in - South 4.6 mph - -  
11:00 AM 60.8 °F - 48.2 °F 63% 30.36 in 6.2 mi South 4.6 mph - N/A   Partly Cloudy
11:30 AM 62.6 °F - 50.0 °F 63% 30.36 in 6.2 mi South 4.6 mph - N/A   Partly Cloudy
12:00 PM 63 °F - 47 °F 44% 30.36 in 16 mi South 6.9 mph - -   Haze
12:00 PM 62.6 °F - 46.4 °F 55% 30.33 in 6.2 mi South 6.9 mph - N/A   Partly Cloudy
12:30 PM 64.4 °F - 48.2 °F 56% 30.33 in 6.2 mi South 8.1 mph - N/A   Partly Cloudy
1:00 PM 65 °F - 46 °F 38% 30.34 in - SSW 8.1 mph - -  
1:00 PM 64.4 °F - 46.4 °F 52% 30.33 in 6.2 mi SSW 8.1 mph - N/A   Partly Cloudy
1:30 PM 66.2 °F - 44.6 °F 46% 30.33 in 6.2 mi SSE 6.9 mph - N/A   Partly Cloudy
2:00 PM 65 °F - 43 °F 34% 30.33 in - South 8.1 mph - -  
2:00 PM 64.4 °F - 42.8 °F 45% 30.33 in 6.2 mi South 8.1 mph - N/A   Partly Cloudy
2:30 PM 64.4 °F - 42.8 °F 45% 30.30 in 6.2 mi SSE 10.4 mph - N/A   Partly Cloudy
3:00 PM 64 °F - 44 °F 36% 30.33 in 16 mi South 11.5 mph - -   Haze
3:00 PM 64.4 °F - 42.8 °F 45% 30.30 in 6.2 mi South 11.5 mph - N/A   Partly Cloudy
3:30 PM 64.4 °F - 44.6 °F 49% 30.30 in 6.2 mi South 9.2 mph - N/A   Partly Cloudy
4:00 PM 64 °F - 42 °F 34% 30.33 in - South 8.1 mph - -  
4:00 PM 64.4 °F - 42.8 °F 45% 30.33 in 6.2 mi South 8.1 mph - N/A   Partly Cloudy
4:30 PM 62.6 °F - 42.8 °F 48% 30.33 in 6.2 mi South 9.2 mph - N/A   Partly Cloudy
5:00 PM 62 °F - 41 °F 35% 30.34 in - South 9.2 mph - -  
5:00 PM 62.6 °F - 41.0 °F 45% 30.33 in 6.2 mi South 9.2 mph - N/A   Partly Cloudy
5:30 PM 59.0 °F - 39.2 °F 48% 30.33 in 6.2 mi South 6.9 mph - N/A   Partly Cloudy
5:48 PM 57.2 °F - 41.0 °F 55% 30.33 in 6.2 mi South 6.9 mph - N/A   Partly Cloudy
6:00 PM 56 °F - 44 °F 55% 30.35 in 11 mi South 8.1 mph - -   Haze
6:00 PM 55.4 °F - 44.6 °F 67% 30.33 in - South 8.1 mph - N/A   Clear
6:30 PM 53.6 °F - 46.4 °F 77% 30.33 in - South 6.9 mph - N/A   Clear
7:00 PM 51 °F - 48 °F 87% 30.36 in - South 5.8 mph - -  
7:00 PM 50.0 °F - 48.2 °F 94% 30.33 in - South 5.8 mph - N/A   Clear
7:30 PM 48.2 °F - 48.2 °F 100% 30.36 in 5.6 mi SSW 5.8 mph - N/A   Partly Cloudy
7:53 PM 48.2 °F - 46.4 °F 93% 30.36 in 3.1 mi SSW 5.8 mph - N/A Fog Fog
8:00 PM 47 °F - 47 °F 98% 30.38 in - SSW 4.6 mph - -  
8:00 PM 48.2 °F - 46.4 °F 93% 30.36 in 0.6 mi SSW 4.6 mph - N/A Fog Fog
8:04 PM 48.2 °F - 46.4 °F 93% 30.36 in 0.2 mi South 3.5 mph - N/A Fog Fog
8:13 PM 48.2 °F - 48.2 °F 100% 30.36 in 0.1 mi South 4.6 mph - N/A Fog Fog
8:30 PM 48.2 °F - 48.2 °F 100% 30.36 in 0.1 mi SW 5.8 mph - N/A Fog Fog
9:00 PM 47 °F - 47 °F 100% 30.39 in 0 mi West 5.8 mph - - Fog Heavy Fog
9:00 PM 48.2 °F - 48.2 °F 100% 30.36 in 0.2 mi West 5.8 mph - N/A Fog Fog
9:30 PM 48.2 °F - 48.2 °F 100% 30.36 in 0.1 mi North 4.6 mph - N/A Fog Fog
10:00 PM 47 °F - 47 °F 100% 30.40 in - NNW 2.3 mph - -  
10:00 PM 46.4 °F - 46.4 °F 100% 30.39 in 0.1 mi NNW 2.3 mph - N/A Fog Fog
10:30 PM 44.6 °F 43.1 °F 44.6 °F 100% 30.39 in 0.1 mi NNW 3.5 mph - N/A Fog Fog
10:54 PM 42.8 °F - 42.8 °F 100% 30.39 in 0.4 mi Calm Calm - N/A Fog Fog
11:00 PM 42 °F - 42 °F 100% 30.40 in - Calm Calm - -  
11:00 PM 42.8 °F - 42.8 °F 100% 30.39 in 0.4 mi Calm Calm - N/A Fog Fog
11:22 PM 41.0 °F - 41.0 °F 100% 30.39 in 2.5 mi Calm Calm - N/A   Scattered Clouds
11:30 PM 41.0 °F - 41.0 °F 100% 30.39 in 3.1 mi Calm Calm - N/A   Partly Cloudy
11:52 PM 42.8 °F 39.3 °F 41.0 °F 93% 30.39 in 5.6 mi North 5.8 mph - N/A   Partly Cloudy